Location: Saint-Gaudens
(43.1069°N, 0.7238°E)
Time: 19:25:53
(UTC+01:00)

ISS - Visible Passes

Search period start: 07 December 2025 00:00
Search period end: 17 December 2025 00:00
Orbit: 416 x 421 km, 51.6° (Epoch: 06 December)

Date Brightness Start Highest point End Pass type
(mag) Time Alt. Az. Time Alt. Az. Time Alt. Az.
11 Dec -0.4 07:12:17 10° SSE 07:14:05 14° SE 07:15:54 10° E visible
13 Dec -2.1 07:11:33 10° SSW 07:14:40 36° SE 07:17:48 10° ENE visible
14 Dec -1.3 06:24:10 10° S 06:26:49 22° SE 06:29:31 10° E visible
15 Dec -0.7 05:38:49 13° SE 05:39:01 13° SE 05:40:43 10° E visible
15 Dec -3.8 07:11:59 10° WSW 07:15:21 82° NNW 07:18:44 10° NE visible
16 Dec -3.3 06:26:43 48° SSW 06:27:21 60° SE 06:30:41 10° ENE visible
